Everett, WA
on Sunday, February 3, 2013

Sunday
Previous Day Next Day
Daily Summary
 ActualAverageRecord
Temperature
Mean Temperature °F °F  
Max Temperature 46°F 46°F 63°F (1962)
Min Temperature 37°F 33°F 6°F (1950)
Degree Days
Heating Degree Days 24    
Moisture
Dew Point 40°F   
Average Humidity 91    
Maximum Humidity 100    
Minimum Humidity 76    
Precipitation
Precipitation 0.04 in in in ()
Wind
Wind Speed 6 mph   
Max Wind Speed 13 mph   
Max Gust Speed mph   
Visibility 5 miles   
Events Fog , Rain   
Averages and records for this station are not official NWS values.
Key: T is trace of precipitation, MM is missing value
Source: NWS Daily Summary
Seasonal Weather Averages
Time(PST)TemperatureDew PointHumidity Pressure Visibility Wind DirectionWind SpeedGust SpeedPrecipitationEvents Conditions
12:13 AM 37.4°F 37.4°F 100% 30.27 in 0.2 miles SSW 3.5 mph - N/A Fog Fog
12:48 AM 39.2°F 37.4°F 93% 30.28 in 0.2 miles Calm Calm - N/A Fog Fog
12:53 AM 39.0°F 37.9°F 96% 30.29 in 0.2 miles SSE 4.6 mph - N/A Fog Fog
1:11 AM 39.2°F 37.4°F 93% 30.28 in 0.2 miles South 3.5 mph - N/A Fog Fog
1:19 AM 39.2°F 37.4°F 93% 30.27 in 0.5 miles South 5.8 mph - N/A Fog Fog
1:28 AM 39.2°F 37.4°F 93% 30.27 in 0.2 miles South 6.9 mph - N/A Fog Fog
1:53 AM 39.0°F 37.0°F 93% 30.28 in 0.2 miles South 5.8 mph - N/A Fog Fog
2:18 AM 37.4°F 37.4°F 100% 30.27 in 0.2 miles SSE 5.8 mph - N/A Fog Fog
2:43 AM 39.2°F 37.4°F 93% 30.26 in 0.5 miles SSE 9.2 mph - N/A Fog Fog
2:53 AM 39.0°F 37.0°F 93% 30.27 in 0.5 miles SSE 8.1 mph - N/A Fog Fog
3:06 AM 39.2°F 37.4°F 93% 30.25 in 0.5 miles SSE 6.9 mph - N/A Fog Fog
3:14 AM 39.2°F 37.4°F 93% 30.25 in 0.2 miles South 5.8 mph - N/A Fog Fog
3:45 AM 39.2°F 39.2°F 100% 30.26 in 0.5 miles South 3.5 mph - N/A Fog Fog
3:53 AM 39.0°F 37.9°F 96% 30.27 in 0.5 miles SSE 3.5 mph - N/A Fog Fog
4:32 AM 39.2°F 39.2°F 100% 30.26 in 0.5 miles SSE 6.9 mph - N/A Fog Fog
4:43 AM 39.2°F 39.2°F 100% 30.27 in 0.5 miles ESE 4.6 mph - N/A Fog Fog
4:53 AM 37.9°F 37.0°F 97% 30.28 in 0.2 miles Calm Calm - N/A Fog Fog
5:06 AM 37.4°F 37.4°F 100% 30.26 in 0.5 miles SE 3.5 mph - N/A Fog Fog
5:24 AM 37.4°F 37.4°F 100% 30.26 in 0.5 miles Variable 5.8 mph - N/A Fog Fog
5:39 AM 39.2°F 37.4°F 93% 30.26 in 1.0 miles SE 9.2 mph - N/A   Mist
5:53 AM 39.0°F 37.9°F 96% 30.27 in 1.0 miles SE 8.1 mph - N/A   Mist
6:00 AM 39.2°F 37.4°F 93% 30.26 in 0.8 miles SSE 10.4 mph - N/A   Mist
6:08 AM 39.2°F 39.2°F 100% 30.27 in 1.5 miles SSE 8.1 mph - N/A   Overcast
6:17 AM 39.2°F 39.2°F 100% 30.28 in 2.5 miles SSE 6.9 mph - N/A   Overcast
6:24 AM 39.2°F 39.2°F 100% 30.27 in 3.0 miles SSE 8.1 mph - N/A   Overcast
6:53 AM 41.0°F 39.0°F 93% 30.28 in 3.0 miles SSE 8.1 mph - N/A   Overcast
7:53 AM 41.0°F 39.0°F 93% 30.29 in 3.0 miles SSE 5.8 mph - N/A   Overcast
8:53 AM 42.1°F 39.9°F 92% 30.30 in 7.0 miles SSE 9.2 mph - N/A   Overcast
9:53 AM 43.0°F 39.9°F 89% 30.29 in 6.0 miles SSE 8.1 mph - N/A   Overcast
10:53 AM 44.1°F 41.0°F 89% 30.31 in 7.0 miles South 8.1 mph - N/A   Overcast
11:53 AM 45.0°F 41.0°F 86% 30.29 in 9.0 miles SSE 6.9 mph - N/A   Overcast
11:56 AM 44.6°F 41.0°F 87% 30.28 in 9.0 miles South 5.8 mph - N/A   Overcast
12:53 PM 46.0°F 41.0°F 83% 30.28 in 10.0 miles SSE 6.9 mph - N/A   Overcast
1:53 PM 46.0°F 41.0°F 83% 30.25 in 10.0 miles SSE 8.1 mph - N/A   Overcast
2:00 PM 46.4°F 41.0°F 81% 30.24 in 10.0 miles SSE 8.1 mph - N/A   Overcast
2:53 PM 46.9°F 39.9°F 77% 30.24 in 10.0 miles SSE 8.1 mph - N/A   Overcast
3:00 PM 46.4°F 39.2°F 76% 30.24 in 10.0 miles South 9.2 mph - N/A   Overcast
3:53 PM 46.9°F 39.9°F 77% 30.25 in 10.0 miles South 10.4 mph - N/A   Overcast
4:53 PM 45.0°F 41.0°F 86% 30.25 in 10.0 miles SSE 8.1 mph - N/A   Overcast
5:00 PM 44.6°F 41.0°F 87% 30.23 in 10.0 miles South 6.9 mph - N/A   Overcast
5:48 PM 44.6°F 41.0°F 87% 30.23 in 9.0 miles SSE 9.2 mph - 0.00 in Rain Light Rain
5:53 PM 45.0°F 41.0°F 86% 30.24 in 9.0 miles South 9.2 mph - 0.00 in Rain Light Rain
6:53 PM 45.0°F 41.0°F 86% 30.23 in 6.0 miles SSE 8.1 mph - 0.01 in Rain Light Rain
7:28 PM 44.6°F 42.8°F 93% 30.21 in 7.0 miles South 9.2 mph - 0.01 in Rain Light Rain
7:42 PM 44.6°F 42.8°F 93% 30.21 in 5.0 miles South 9.2 mph - 0.02 in Rain Light Rain
7:53 PM 45.0°F 42.1°F 90% 30.22 in 5.0 miles South 9.2 mph - 0.02 in Rain Light Rain
8:41 PM 44.6°F 42.8°F 93% 30.20 in 8.0 miles South 10.4 mph - 0.00 in   Overcast
8:53 PM 45.0°F 42.1°F 90% 30.22 in 9.0 miles South 10.4 mph - 0.00 in   Overcast
8:58 PM 44.6°F 42.8°F 93% 30.21 in 9.0 miles SSW 9.2 mph - N/A   Overcast
9:14 PM 44.6°F 41.0°F 87% 30.20 in 10.0 miles SSW 12.7 mph - N/A   Overcast
9:27 PM 44.6°F 41.0°F 87% 30.21 in 10.0 miles South 12.7 mph - 0.01 in   Overcast
9:53 PM 44.1°F 41.0°F 89% 30.22 in 10.0 miles SSW 9.2 mph - 0.01 in   Overcast
10:38 PM 44.6°F 41.0°F 87% 30.20 in 10.0 miles SSW 6.9 mph - N/A   Overcast
10:53 PM 44.1°F 41.0°F 89% 30.22 in 10.0 miles SSW 8.1 mph - N/A   Overcast
11:07 PM 44.6°F 41.0°F 87% 30.21 in 10.0 miles SSW 6.9 mph - N/A   Overcast
11:53 PM 44.1°F 41.0°F 89% 30.21 in 10.0 miles SSW 5.8 mph - N/A   Overcast
Moon Phase
Feb. 03 Feb. 10 Feb. 17 Feb. 25 Mar. 04
Sunrise:07:33 AM (PST) Moon Rise:01:08 AM (PST)2/3
Sunset:05:13 PM (PST) Moon Set:10:51 AM (PST)2/3

Copyright © 2014 The Weather Underground, Inc.